Regional Weather Roundup
Issued by NWS

Home | Current Version | Previous Version | Graphics & Text | Print | Product List | Glossary On
Versions: 1 2 3 4 5 6 7 8 9 10 11 12 13 14 15 16 17 18 19 20 21 22 23 24 25 26 27 28 29 30 31 32 33 34 35 36 37 38 39 40 41 42 43 44 45 46 47 48 49 50
626
ASUS45 KTFX 280910
RWRMT
MONTANA REGIONAL WEATHER ROUNDUP
NATIONAL WEATHER SERVICE GREAT FALLS MT
300 AM MDT SAT MAY 28 2016

NOTE: "FAIR" INDICATES FEW OR NO CLOUDS BELOW 12000 FEET WITH NO
SIGNIFICANT WEATHER AND/OR OBSTRUCTIONS TO VISIBILITY.

MTZ001>007-043-281000-
WEST OF THE DIVIDE

CITY           SKY/WX    TMP DP  RH WIND       PRES   REMARKS
KALISPELL      MOCLDY    41  39  93 S6        29.99S
MISSOULA       MOCLDY    42  35  76 NW3       30.04R
BUTTE          CLOUDY    39  36  89 CALM      30.02S
MULLAN PASS    MOCLDY    33  27  78 VRB3      30.01F
ANACONDA         N/A     36  32  87 SW3       30.01F
DEER LODGE       N/A     41  36  81 CALM      30.02S
EUREKA           N/A     45  37  76 SE5       29.99F
HAMILTON         N/A     37  32  81 CALM      30.02S
LIBBY            N/A     37  36  93 CALM      30.01S
$$

MTZ008-052>055-281000-
SOUTHWEST MONTANA

CITY           SKY/WX    TMP DP  RH WIND       PRES   REMARKS
BOZEMAN        CLOUDY    47  43  86 S3        29.99S
DILLON         CLOUDY    43  39  86 S6        30.00S
W YELLOWSTONE  CLOUDY    39  37  93 CALM      30.03S
ENNIS          CLOUDY    43  41  93 SE5       30.05F
$$

MTZ009-010-012-014-046-048-049-054-281000-
EAST SLOPES AND CENTRAL MONTANA

CITY           SKY/WX    TMP DP  RH WIND       PRES   REMARKS
CUT BANK       CLEAR     41  31  67 W13       29.91S
GREAT FALLS    CLOUDY    46  42  86 SW5       29.95S
MALMSTROM AFB  CLOUDY    50  41  72 SW9       29.94S
HELENA         PTCLDY    47  33  58 SW9       29.98S
CHOTEAU          N/A     41  32  70 S3        29.95S
$$

MTZ011-013-016-021-045-047-050-051-281000-
NORTH CENTRAL MONTANA

CITY           SKY/WX    TMP DP  RH WIND       PRES   REMARKS
HAVRE          LGT RAIN  52  48  86 SW10      29.87S
LEWISTOWN      CLOUDY    48  45  89 S3        29.93F
N BAR RANCH    CLOUDY    46  43  87 W13       29.94R
CHINOOK          N/A     54  54 100 CALM      29.89R
$$

MTZ017>020-022>027-061-062-281000-
NORTHEAST MONTANA

CITY           SKY/WX    TMP DP  RH WIND       PRES   REMARKS
GLASGOW        MOCLDY    53  49  86 E12       29.83S
JORDAN           N/A     52  49  89 W5        29.84S
SIDNEY         CLOUDY    54  54 100 NE3       29.87S
WOLF POINT     CLOUDY    51  50  96 E8        29.86R
PLENTYWOOD       N/A     54  54 100 E13       29.90R
POPLAR           N/A     52  52 100 NE9       29.87S
$$

MTZ028>42-056>058-281000-
SOUTHCENTRAL AND SOUTHEAST MONTANA

CITY           SKY/WX    TMP DP  RH WIND       PRES   REMARKS
BAKER          CLOUDY    48  44  86 CALM      29.87R
BILLINGS       LGT RAIN  51  47  86 SW8       29.93R
LIVINGSTON     CLOUDY    44  41  89 W5        29.96S
MILES CITY     PTCLDY    51  46  83 NW3       29.85R
FORSYTH          N/A     54  48  82 SW3       29.86S
$$

REGIONAL REPORTS...DAKOTAS

CITY           SKY/WX    TMP DP  RH WIND       PRES   REMARKS
WILLISTON      CLOUDY    57  53  86 E8        29.88S
MINOT          CLOUDY    56  54  93 NE8       29.87S FOG
DICKINSON      CLOUDY    47  44  90 S3        29.84S
BEACH          CLOUDY    46  46 100 S6        29.89S
CROSBY         CLOUDY    52  52 100 E14       29.93S
WATFORD CITY   CLOUDY    55  55 100 E9        29.87S
BISMARCK       CLOUDY    51  50  96 NE3       29.85R
GRAND FORKS    CLOUDY    62  58  86 E3        29.82R
FARGO          CLOUDY    59  56  89 E6        29.80S
BUFFALO SD       N/A     49  44  83 W3        29.81R
RAPID CITY     CLEAR     45  43  93 NW8       29.87R
$$

REGIONAL REPORTS...WYOMING/IDAHO/WASHINGTON

CITY           SKY/WX    TMP DP  RH WIND       PRES   REMARKS
GILLETTE       CLOUDY    48  45  89 W6        29.91R
SHERIDAN       CLOUDY    48  45  89 SW6       29.90S
BUFFALO WY     CLOUDY    50  43  77 S10       29.93S
CODY           CLOUDY    45  43  93 NE3       29.96S
YELLOWSTONE LA   N/A     33  31  92 CALM      30.06S
IDAHO FALLS    CLEAR     43  32  65 SW5       29.99S
SALMON         CLOUDY    48  37  66 CALM      29.99F
BOISE          PTCLDY    48  32  53 W6        30.02R
SPOKANE        PTCLDY    44  33  65 S8        29.98F
$$

REGIONAL REPORTS...ALBERTA

CITY           SKY/WX    TMP DP  RH WIND       PRES   REMARKS
EDMONTON       CLOUDY    48  43  81 W9        29.82R
CALGARY        PTCLDY    39  37  93 S2        29.87S
LETHBRIDGE     CLEAR     43  34  70 W14G24    29.88S
MEDICINE HAT   CLOUDY    50  39  66 SW9       29.86R
WATERTON GATE    N/A     45  28  53 SW17G26     N/A
MILK RIVER       N/A     37  32  81 W5          N/A
$$

REGIONAL REPORTS...SASKATCHEWAN

CITY           SKY/WX    TMP DP  RH WIND       PRES   REMARKS
SWIFT CURRENT  CLOUDY    54  50  87 E9        29.85F
SASKATOON      PTCLDY    54  50  87 SE15      29.91R
CYPRESS HILLS    N/A     45  39  81 NW7         N/A
ROCKGLEN         N/A     52  50  93 E8          N/A
ASSINIBOIA       N/A     52  52 100 SW5         N/A
$$




USA.gov is the U.S. government's official web portal to all federal, state and local government web resources and services.